Regional Weather Roundup
Issued by NWS

Home | Current Version | Previous Version | Text Only | Print | Product List | Glossary On
Versions: 1 2 3 4 5 6 7 8 9 10 11 12 13 14 15 16 17 18 19 20 21 22 23 24 25 26 27 28 29 30 31 32 33 34 35 36 37 38 39 40 41 42 43 44 45 46 47 48 49 50
000
ASUS43 KLOT 250909
RWRIL

ILLINOIS REGIONAL WEATHER ROUNDUP
NATIONAL WEATHER SERVICE CHICAGO/ROMEOVILLE IL
400 AM CDT THU AUG 25 2016

NOTE: "FAIR" INDICATES FEW OR NO CLOUDS BELOW 12,000 FEET WITH NO
SIGNIFICANT WEATHER AND/OR OBSTRUCTIONS TO VISIBILITY.

* THESE STATIONS ARE NOT UNDER NWS QUALITY CONTROL. THEY ALSO MAY NOT
  REPORT WEATHER SUCH AS PRECIPITATION OR FOG.

ILZ001-002-007-009-015-016-024-251000-
NORTHWEST ILLINOIS

CITY           SKY/WX    TMP DP  RH WIND       PRES   REMARKS
MOLINE         CLOUDY    71  69  93 SW5       29.99F
STERLING*      LGT RAIN  70  70 100 SW7       29.98F
SAVANNA*       CLOUDY    73  73  98 W3        29.98S FOG
$$

ILZ003-004-008-010-011-017-018-251000-
NORTH CENTRAL ILLINOIS

CITY           SKY/WX    TMP DP  RH WIND       PRES   REMARKS
ROCKFORD       CLOUDY    73  71  93 SW6       29.98S
FREEPORT*      LGT RAIN  69  66  92 N7        30.00R
ROCHELLE*      CLOUDY    69  69  99 SW7       29.99F
DE KALB*       CLOUDY    71  69  95 SW7       30.00S
$$

ILZ005-006-012>014-019>023-251000-
NORTHEAST ILLINOIS

CITY           SKY/WX    TMP DP  RH WIND       PRES   REMARKS
CHICAGO-OHARE  CLOUDY    73  70  90 SW6       29.98R
CHICAGO-MIDWAY CLOUDY    74  70  87 SW9       29.97S
AURORA         CLOUDY    72  69  90 SW7       30.00R
LANSING*       CLOUDY    71  67  89 S6        29.99S
JOLIET*        LGT RAIN  72  72  99 S6        30.00S
WAUKEGAN       CLOUDY    73  69  87 N6        29.96R
DUPAGE AIRPORT CLOUDY    72  68  87 SW9       29.99R
KANKAKEE*      CLOUDY    70  69  98 S7        30.04R
WHEELING       CLOUDY    74  71  91 S5        29.98R
MORRIS*        RAIN      71  70  96 SW7       29.99F
ROMEOVILLE*    LGT RAIN  71  69  95 SW9       30.00R
NORTHERLY ISL    N/A     74  69  85 S8          N/A
$$

LMZ740>746-251000-
SOUTHERN LAKE MICHIGAN

STATION/POSITION SKY/WX   TEMP    WIND        PRES    VSBY  WAVE
                          AIR SEA DIR/SP/G                  HT/PER
                          (F)     (DEG/KT/KT) (MB)    (MI)  (FT/S)
SOUTHERN BUOY              75 75  220/ 16/ 17 1013.3R         1/ 3
WILMETTE HARBOR            71 70  250/  6/  6   N/A           0
HARRISON CRIB              73     210/ 11/ 12   N/A
BURNHAM HARBOR             73     200/  7/  9   N/A
CALUMET HARBOR             73     200/  5/  8 1014.4F
BURNS HARBOR               73     180/  8/ 14 1015.2F
MICHIGAN CITY              73     170/ 10/ 12   N/A
MICHIGAN CITY 6N           74 74  190/  8/ 12   N/A           1/ 2
ST. JOSEPH                 75 74  200/ 10/ 12 1014.4F         2/ 3
$$

ILZ025>027-034>036-040-047-049-050-058-095>099-251000-
WEST-CENTRAL ILLINOIS

CITY           SKY/WX    TMP DP  RH WIND       PRES   REMARKS
QUINCY         CLOUDY    70  70 100 S7        30.03R
GALESBURG*     DRIZZLE   71  70  97 CALM      30.00S
MACOMB*        CLOUDY    71  71 100 CALM      30.03R FOG
JACKSONVILLE*  PTCLDY    68  67  97 SE5       30.02F
PITTSFIELD*    PTCLDY    69  69  97 S3        30.03S
$$

ILZ028>032-037-038-041>044-048-051>054-059>061-251000-
CENTRAL ILLINOIS

CITY           SKY/WX    TMP DP  RH WIND       PRES   REMARKS
PONTIAC        LGT RAIN  70  70 100 CALM      30.00F
BLOOMINGTON    CLOUDY    69  67  93 W5        30.02F
DECATUR        CLOUDY    70  67  90 NW6       30.03F
PEORIA         LGT RAIN  71  71 100 S7        29.99F
LACON*         LGT RAIN  71  70  96 CALM      29.96F
LINCOLN*       CLOUDY    69  69 100 CALM      30.00F
SPRINGFIELD    CLOUDY    69  67  93 S5        30.02F
TAYLORVILLE    PTCLDY    69  67  96 CALM      30.04F
$$

ILZ033-039-045-046-055>057-062-063-251000-
EAST-CENTRAL ILLINOIS

CITY           SKY/WX    TMP DP  RH WIND       PRES   REMARKS
CHAMPAIGN      CLOUDY    70  68  93 NW6       30.04F
RANTOUL*       CLOUDY    71  70  97 NW6       30.03F
MATTOON        MOCLDY    78  74  87 NW16G23   30.05R HX  81
PARIS*         PTCLDY    76  75  97 SW5       30.05R
$$

ILZ079-100>102-251000-
SOUTHWEST ILLINOIS

CITY           SKY/WX    TMP DP  RH WIND       PRES   REMARKS
ALTON          PTCLDY    76  72  86 CALM      30.05F
BELLEVILLE     CLEAR     74  74  99 S1        30.04S
CAHOKIA*       PTCLDY    77  72  84 VRB5      30.05R
SPARTA*        CLEAR     74  73  95 CALM      30.06F
$$

ILZ064>066-069>071-074>076-080>082-084>086-088>090-092>094-251000-
SOUTH-CENTRAL ILLINOIS

CITY           SKY/WX    TMP DP  RH WIND       PRES   REMARKS
CARBONDALE     CLEAR     71  70  96 S5        30.06F FOG
CAIRO*         CLEAR     74  74  99 CALM      30.07S
EFFINGHAM*     MOCLDY    77  77  99 SW9       30.06S
MARION         CLEAR     73  73 100 CALM      30.08S FOG
MT. VERNON       N/A     73  68  83 CALM      30.06F VSB 3/4
CENTRALIA*     CLEAR     74  74 100 SW3       30.05S FOG
SALEM*         CLEAR     76  74  92 SW3       30.06S
$$

ILZ067-068-072-073-078-083-087-091-251000-
SOUTHEAST ILLINOIS

CITY           SKY/WX    TMP DP  RH WIND       PRES   REMARKS
LAWRENCEVILLE  CLEAR     75  74  96 S5        30.06S
FLORA*         CLEAR     74  73  96 S6        30.05F
FAIRFIELD*     CLEAR     73  73 100 CALM      30.05F FOG
HARRISBURG*    CLEAR     75  74  99 CALM      30.07F
ROBINSON*      PTCLDY    76  74  94 SW8       30.06S
CARMI*         CLEAR     73  73 100 CALM      30.06F
$$

ABBREVIATIONS USED IN REMARKS
   TC - TEMPERATURE IN CELSIUS
  WCI - WIND CHILL INDEX
   HX - HEAT INDEX
  VSB - VISIBILITY
$$




USA.gov is the U.S. government's official web portal to all federal, state and local government web resources and services.